Location: Roland
(31.1349°N, 85.4372°W)
Time: 03:50:20
(UTC+00:00)

Vanguard 2 Rocket - Pass Details

Date: 07 December 2021
Orbit: 554 x 3324 km, 32.9° (Epoch: 16 January)

Event Time Altitude Azimuth Distance (km) Brightness Sun altitude
Exits shadow 07:18:05 10° 178° (S) 6,231 11.0 -65.2°
Drops below altitude 10° 07:18:12 10° 177° (S) 6,247 11.0 -65.2°
Sets 07:25:26 0° 163° (SSE) 7,284 11.5 -63.7°
